User: anonymous   Login
Location: Unspecified
(0.0000°N, 0.0000°E)
Time: 06:12:33
(UTC+00:00)
Language:

CP4 - Orbit

View from above orbital plane
View from above orbital plane
View from above satellite
View from above satellite

Ground track
Ground track

The orbit data is extracted from the following two-line orbital elements,

1 31132U 07012Q   18115.84662623  .00000130  00000-0  36778-4 0  9992
2 31132  98.0739  67.1445 0079452 241.5821 117.7356 14.58958373586030
Epoch (UTC): 25 April 2018 20:19:08
Eccentricity: 0.0079452
inclination: 98.0739°
perigee height: 640 km
apogee height: 753 km
right ascension of ascending node: 67.1445°
argument of perigee: 241.5821°
revolutions per day: 14.58958373
mean anomaly at epoch: 117.7356°
orbit number at epoch: 58603

The dashed part of the orbit path shows where the satellite is in the earth's shadow,  

DLR